Location: Caltech
(34.1382°N, 118.1253°W)
Time: 01:23:50
(UTC-08:00)

Meteor 2-4 Rocket - Visible Passes

Search period start: 27 February 2017 00:00
Search period end: 09 March 2017 00:00
Orbit: 799 x 909 km, 81.2° (Epoch: 26 February)

Date Brightness Start Highest point End Pass type
(mag) Time Alt. Az. Time Alt. Az. Time Alt. Az.
27 Feb 5.6 19:43:21 10° NNW 19:47:58 29° W 19:52:30 10° SSW visible
28 Feb 5.5 19:32:15 10° NNW 19:36:57 31° W 19:41:36 10° SSW visible
01 Mar 5.4 19:21:09 10° NNW 19:25:58 33° W 19:30:42 10° SSW visible
02 Mar 5.3 19:10:04 10° NNW 19:14:58 35° W 19:19:47 10° SSW visible
03 Mar 5.2 18:58:59 10° NNW 19:03:57 38° W 19:08:51 10° SSW visible
04 Mar 5.0 18:47:54 10° NNW 18:52:57 41° W 18:57:55 10° SSW visible
05 Mar 4.9 18:36:50 10° NNW 18:41:57 44° W 18:46:58 10° SSW visible
06 Mar 4.8 18:25:46 10° NNW 18:30:56 48° W 18:36:01 10° SSW visible
07 Mar 4.7 18:14:42 10° NNW 18:19:55 51° W 18:25:04 10° SSW visible
08 Mar 6.4 05:38:00 10° SE 05:42:46 27° E 05:47:28 10° NE visible
